RH
23 23 22 22 19 17 19 19 24 25 23 29 32 36 41 39 40 41 37 37 43 49 52 49 48 48 47 54 60 63 68 68 69 68 68 72 69 68 71 83 88 83 87 85 79 79 74 71 68 64 59 55 54 53 52 50 48 47 46 45 45 43 42 44 46 48 49 48 49 52 54 55 54 53 53 52 51 49 50 51 51 51 49 49 50 48 47 47 45 47 51 47 40 36 29 24 24
22 23 22 21 18 19 21 20 27 28 24 30 34 37 39 37 39 38 38 42 47 50 50 46 46 48 50 54 55 58 62 66 68 66 67 69 64 66 71 82 90 87 85 80 77 76 72 70 68 65 60 57 55 53 52 50 48 47 47 47 46 44 42 41 43 45 48 49 50 52 53 54 54 53 52 53 52 51 51 52 53 52 51 50 51 48 44 44 45 50 55 50 45 41 33 28 29
22 22 21 20 18 20 24 22 27 28 26 33 37 38 38 39 38 33 38 44 46 47 46 45 44 47 50 53 54 58 63 64 64 67 70 67 61 64 74 80 83 83 79 75 77 74 71 71 69 66 62 60 58 56 54 52 50 50 49 48 48 46 45 45 45 45 46 49 50 52 53 53 53 52 52 51 52 52 52 53 54 55 55 54 53 50 48 49 50 54 55 49 44 42 36 33 34
22 21 20 18 19 24 26 24 29 28 28 36 39 38 39 43 38 33 42 49 50 48 46 44 46 49 51 54 58 60 65 66 65 69 72 71 68 69 76 79 75 75 75 73 75 73 70 69 67 65 62 60 58 58 57 56 54 53 52 50 49 48 49 50 50 48 47 47 49 51 51 51 51 52 52 52 52 53 52 52 54 55 55 56 55 53 54 54 54 53 49 46 44 41 38 36 36
21 21 19 19 22 27 27 27 29 28 33 41 42 40 42 45 42 45 52 56 56 51 47 44 47 54 53 56 60 59 63 66 66 66 68 73 76 76 77 79 77 75 74 72 71 69 65 64 64 62 60 58 58 59 59 59 57 54 52 52 52 52 53 52 51 50 47 46 47 48 49 48 50 51 51 52 52 52 53 52 54 56 55 56 56 55 57 55 55 53 45 43 46 43 40 38 38
20 20 18 19 24 26 27 29 28 28 37 43 43 42 45 47 47 53 54 54 58 54 47 45 47 52 53 57 60 60 63 64 62 61 66 71 74 78 77 78 81 78 74 71 68 64 61 60 60 58 56 55 57 58 58 57 54 51 51 52 54 55 55 53 50 48 46 43 44 46 47 47 48 49 50 52 52 53 52 53 54 56 55 56 56 56 58 56 55 55 47 44 46 46 44 40 39
20 20 18 20 24 26 29 32 27 30 42 45 47 49 50 51 50 53 52 51 57 54 50 52 49 48 55 60 60 61 62 62 61 61 66 70 69 70 71 71 75 76 73 69 66 62 59 59 59 58 56 55 55 55 55 53 51 50 51 53 56 58 58 55 51 48 46 44 44 46 47 46 46 48 51 53 54 53 53 54 54 54 55 56 57 56 58 57 56 55 47 46 48 48 48 43 40
19 19 19 23 27 27 29 32 33 41 52 53 53 53 52 52 52 55 54 49 54 54 52 56 49 49 60 61 59 61 59 59 61 63 65 69 69 68 69 68 67 69 69 66 64 61 60 61 61 60 57 55 53 53 52 52 52 51 54 58 60 60 59 57 52 50 49 47 46 45 45 44 43 44 49 54 54 55 54 54 52 51 53 55 56 56 57 57 57 53 45 47 49 50 51 47 41
19 18 19 26 30 27 28 35 43 54 59 54 53 54 53 52 51 52 52 51 53 55 56 55 46 50 64 62 59 61 57 56 59 61 63 65 67 70 72 71 68 66 66 65 63 61 61 62 61 60 57 53 52 52 53 54 55 56 59 61 60 59 58 57 54 51 49 48 47 45 43 41 39 40 44 48 50 52 52 52 51 50 50 53 55 57 59 58 58 52 45 49 52 51 52 48 42
18 18 23 29 30 28 34 43 51 62 61 52 54 58 57 54 50 50 52 53 54 56 59 55 47 53 64 62 61 60 56 57 58 56 58 62 61 64 70 73 73 69 68 69 67 64 62 63 63 61 59 56 55 55 55 55 57 59 60 59 60 58 56 55 53 50 49 49 49 48 46 43 41 41 43 45 46 47 48 49 49 49 49 53 56 59 61 61 60 52 46 52 54 53 50 46 41
19 22 28 30 29 34 45 51 56 67 64 53 57 63 62 56 51 53 54 53 54 54 57 56 55 61 62 62 64 62 57 55 55 55 55 58 58 60 66 71 72 70 70 70 66 62 61 62 63 63 62 60 59 59 57 58 59 59 59 58 59 57 54 53 51 48 48 50 51 50 49 47 46 46 48 49 48 48 47 48 48 49 50 54 58 60 61 62 62 53 47 54 56 57 51 44 40
23 28 30 32 38 47 55 57 60 65 60 56 64 65 64 62 57 58 56 54 54 55 54 53 58 64 63 64 67 64 59 55 56 57 57 59 60 60 63 67 68 69 68 65 62 61 62 64 65 66 64 61 60 59 57 57 59 59 58 57 56 55 53 52 51 49 49 51 50 50 49 48 49 50 50 51 52 52 50 50 50 51 53 55 58 60 61 61 63 58 51 56 58 58 53 45 39
27 30 32 40 48 56 60 58 61 61 55 65 74 68 65 63 62 62 60 57 55 55 54 51 55 59 62 66 68 67 62 58 58 60 60 60 62 62 62 65 65 66 66 63 62 61 64 66 67 66 65 63 60 57 55 56 57 56 55 54 55 55 54 53 52 51 51 52 51 50 49 49 49 49 49 49 52 54 54 54 53 53 53 55 57 58 61 60 61 60 54 58 60 57 54 48 41
29 31 37 46 51 56 59 57 61 62 61 73 77 70 65 62 64 63 61 61 58 57 53 52 53 56 61 66 69 70 63 58 57 59 62 62 62 61 61 64 64 64 64 62 61 61 63 67 67 65 63 61 59 56 55 56 55 52 51 52 53 53 54 54 53 53 52 52 51 51 53 51 49 50 47 46 49 53 54 55 54 54 54 55 57 59 63 61 60 58 53 59 61 56 55 51 44
32 36 45 50 50 55 58 59 62 63 70 79 75 70 66 62 64 63 62 62 61 57 53 53 53 54 62 64 66 68 65 60 56 55 59 62 62 60 59 61 61 62 62 60 60 60 61 65 66 63 59 57 57 55 52 52 53 50 48 49 50 51 53 54 52 52 52 49 48 48 51 48 47 49 47 46 49 52 55 55 54 54 55 58 59 58 60 59 57 52 50 58 63 61 60 55 48
38 42 48 50 48 54 60 63 67 68 71 74 74 72 67 65 63 61 62 59 58 57 54 55 54 54 61 63 64 65 65 62 58 57 59 61 63 61 60 61 61 61 59 59 59 60 61 62 62 59 56 55 53 50 48 50 51 47 47 49 49 50 52 52 51 50 49 47 46 47 48 45 44 46 48 50 53 57 58 57 54 53 55 57 59 58 56 53 49 44 46 57 62 64 64 61 55
41 43 48 48 47 56 62 63 68 72 68 65 69 72 68 65 60 57 57 53 55 58 57 59 58 57 60 63 64 61 61 59 58 59 59 60 60 60 60 59 59 57 55 55 55 56 57 57 57 55 52 52 49 46 47 48 49 49 52 54 55 55 55 53 52 51 52 53 53 52 53 51 49 50 51 54 58 61 61 60 58 56 56 57 58 57 56 50 43 40 45 54 60 62 62 59 55
40 42 45 46 51 60 60 58 64 70 70 65 66 69 67 64 60 57 56 54 57 61 62 63 63 63 63 63 62 59 58 58 57 58 57 57 56 55 55 55 56 55 53 52 50 50 51 52 52 50 48 48 47 46 46 46 47 50 54 56 58 60 59 56 54 55 58 60 60 60 59 58 57 56 56 58 60 61 62 62 60 60 61 60 57 55 55 48 38 39 44 51 57 57 55 53 50
39 42 44 48 56 59 57 58 61 68 72 67 65 69 67 64 61 59 59 60 61 62 67 69 66 66 65 62 59 58 58 59 59 57 54 53 53 51 50 51 52 52 51 50 49 48 49 48 47 47 47 48 47 46 45 45 46 48 50 52 57 60 60 59 57 56 59 63 64 64 62 62 63 62 60 62 64 64 63 61 60 62 62 60 56 51 52 47 36 36 42 48 53 55 52 48 46
40 44 50 52 53 55 57 61 63 67 68 65 71 73 66 64 63 62 62 63 63 63 66 69 68 67 65 62 58 58 58 59 58 56 54 52 51 49 47 48 49 50 49 49 48 47 47 46 44 45 45 44 44 44 45 47 46 45 46 47 52 54 55 56 58 57 57 60 62 63 63 64 64 64 64 66 65 63 63 61 61 63 60 58 56 52 53 53 43 37 42 47 53 57 57 52 47
39 43 51 52 49 52 57 61 65 70 68 67 74 71 66 66 63 62 61 61 64 66 65 65 66 67 66 64 61 58 56 56 56 55 52 51 50 49 49 49 49 49 48 47 46 46 46 45 44 44 43 41 42 44 45 46 42 41 42 43 46 48 51 52 53 54 52 53 55 56 61 63 62 62 64 66 66 64 63 64 64 64 63 61 61 60 60 61 56 47 46 51 56 61 65 63 56
40 44 48 52 52 54 58 61 65 70 69 69 73 69 68 68 65 64 60 61 66 67 66 65 66 67 66 64 61 57 56 54 54 53 51 50 52 51 50 49 48 46 46 44 43 43 44 43 42 41 40 40 41 41 40 39 37 36 36 38 40 43 46 45 45 47 47 46 47 50 53 56 57 60 62 64 65 65 64 65 64 64 65 65 64 64 66 67 66 60 55 54 58 64 69 68 65
41 46 48 53 55 56 59 62 66 69 69 70 69 68 69 67 66 66 62 63 66 66 67 67 67 66 64 63 61 59 61 61 61 60 56 53 52 51 49 47 45 44 43 42 41 40 41 40 39 39 38 38 37 37 36 35 32 30 32 33 35 37 38 38 38 39 40 40 42 43 44 48 51 53 56 59 62 61 61 62 62 63 64 62 60 59 62 65 65 64 61 57 55 60 66 68 68
40 46 50 53 55 58 60 63 68 71 70 69 65 65 65 63 65 66 64 66 66 65 66 64 63 61 60 60 59 61 65 67 68 67 63 58 53 49 47 45 44 43 42 42 43 43 42 42 41 41 40 41 41 41 39 38 35 33 33 32 31 33 33 34 34 31 28 28 31 34 34 38 43 47 49 51 55 55 55 58 59 58 60 60 57 55 57 59 59 60 62 62 57 55 60 64 68
42 47 52 53 55 59 61 63 68 69 69 68 64 63 62 62 66 67 68 70 67 65 64 62 60 56 54 55 56 58 60 60 59 59 59 58 57 53 48 46 46 46 45 46 47 46 44 43 43 43 43 43 43 43 42 42 41 40 39 37 35 36 37 36 32 25 20 18 19 21 22 26 31 37 42 44 49 52 53 54 56 56 57 58 58 57 56 56 55 55 58 62 61 58 58 61 67
47 48 55 57 57 60 62 62 64 65 65 63 59 61 60 60 64 66 70 73 69 66 65 63 58 56 57 60 60 58 58 56 53 54 55 55 59 61 56 52 51 50 51 51 52 50 48 47 46 47 46 45 45 43 43 43 44 44 42 42 42 44 46 45 39 29 22 20 18 16 16 19 22 25 33 37 40 47 50 52 55 56 57 58 59 59 58 58 56 55 56 59 61 60 59 58 61
47 49 56 61 60 62 65 62 60 61 62 59 57 61 62 60 63 69 73 75 71 67 67 64 59 61 64 65 64 61 61 61 59 58 58 57 59 64 63 60 59 57 56 55 54 53 51 51 50 49 48 48 47 45 45 45 46 45 43 43 46 48 49 52 50 40 29 26 24 20 16 17 19 21 26 28 30 36 42 46 50 52 52 54 57 59 60 60 58 57 58 58 57 57 57 57 56
49 54 60 63 63 66 66 61 59 61 61 58 56 61 65 62 65 71 72 71 69 67 66 64 62 64 65 64 64 64 66 64 64 62 60 61 62 63 62 62 62 61 60 56 53 54 54 53 52 53 52 50 49 48 47 47 48 46 45 46 48 49 49 51 54 52 45 37 31 28 24 20 18 19 22 24 26 30 32 36 40 42 44 46 49 53 55 55 55 55 56 55 55 55 56 58 58
52 59 65 69 67 66 64 61 61 61 58 55 54 61 67 67 69 71 68 66 68 68 69 67 64 63 64 65 65 66 67 64 63 62 60 60 59 57 55 55 57 56 56 54 52 53 54 55 55 54 55 54 52 50 49 48 48 49 49 50 50 51 50 51 53 56 56 52 46 41 36 29 24 21 19 20 24 27 29 31 35 37 40 41 42 45 47 47 47 50 53 52 51 52 54 56 58
53 59 66 74 73 66 62 61 62 61 57 55 57 67 73 70 70 69 65 64 67 68 68 68 66 65 64 65 67 69 68 64 60 58 55 53 51 50 49 50 51 51 52 52 51 52 53 56 56 55 55 55 54 52 51 49 48 50 51 50 51 51 50 52 54 54 56 58 58 56 51 44 38 31 25 22 22 24 25 27 30 33 35 38 39 40 41 42 42 44 48 48 47 49 52 54 54
54 57 64 78 81 72 62 59 61 62 60 58 58 68 73 70 70 70 66 63 66 67 66 64 64 66 68 68 69 70 69 66 64 60 56 54 51 50 50 50 50 51 51 52 53 53 53 54 56 57 56 55 55 53 53 52 49 50 51 49 49 50 50 53 54 54 56 58 59 61 62 58 53 47 38 31 27 25 24 24 24 24 27 32 36 37 38 37 37 40 43 44 45 49 52 55 54
52 57 66 76 80 74 65 62 64 63 61 59 60 67 70 69 72 72 68 65 64 66 66 64 63 64 67 69 70 69 68 68 66 63 63 62 58 54 54 54 53 53 54 54 56 56 55 54 55 57 57 56 55 54 55 54 53 52 51 50 49 48 49 50 50 52 55 57 59 61 63 60 58 57 51 42 37 33 32 31 29 25 24 28 32 34 36 34 33 36 38 40 43 47 50 51 51
49 56 62 67 72 73 71 69 67 64 62 61 63 67 67 70 75 73 69 67 65 66 65 65 66 65 63 66 68 67 69 69 65 62 61 60 59 58 58 57 55 54 55 55 57 60 59 58 57 57 57 56 54 52 51 50 52 53 51 50 48 47 47 48 47 48 51 55 56 58 60 59 57 58 58 53 47 43 41 38 35 31 28 28 32 34 35 34 33 33 35 38 40 42 43 43 43
47 52 56 59 65 68 70 71 68 65 66 65 61 61 63 69 74 73 73 68 65 68 66 63 66 66 62 63 67 67 66 65 63 61 58 57 60 61 59 59 56 53 51 51 55 61 61 59 57 55 55 52 50 49 47 46 46 46 46 45 44 43 43 44 44 46 48 51 52 54 57 59 58 58 58 57 53 51 51 46 39 34 31 29 31 35 36 34 33 34 35 35 36 37 39 40 40
45 50 54 56 60 63 65 71 72 65 65 67 64 63 63 65 66 69 73 71 67 68 67 63 63 64 60 61 66 66 63 61 60 59 58 56 58 59 58 57 55 51 50 50 52 53 53 52 50 48 46 45 44 44 43 42 41 40 39 38 38 38 38 38 40 43 45 47 49 52 55 56 58 59 60 60 58 57 60 58 50 44 38 33 32 33 34 33 33 33 34 34 34 34 34 35 38
45 47 51 54 59 62 63 68 70 65 67 70 70 69 66 64 63 64 69 70 68 68 68 65 64 64 61 60 64 64 63 62 57 55 54 53 53 56 55 51 51 51 50 49 47 45 44 43 41 40 39 38 37 36 35 34 34 34 34 34 34 34 34 36 37 39 41 43 46 49 52 53 56 58 59 59 60 60 61 62 62 60 53 46 40 38 36 35 34 32 33 35 36 36 34 32 35
47 49 52 57 60 62 62 63 63 62 69 75 71 69 68 66 65 65 67 68 68 70 70 67 63 62 60 58 61 63 62 59 55 53 51 50 50 53 51 48 48 48 47 46 43 39 38 37 36 35 35 34 32 31 30 29 30 31 32 33 33 33 33 35 36 37 38 41 43 44 46 48 50 52 54 54 56 58 60 62 65 66 65 61 55 51 45 40 38 37 35 35 35 35 33 31 33
47 51 53 58 60 61 62 61 61 62 69 76 72 70 69 67 66 66 65 66 68 70 70 69 65 61 58 57 61 63 59 57 55 54 52 49 49 50 48 47 46 44 42 41 38 36 34 33 33 33 32 30 29 29 28 28 30 31 32 32 33 34 34 33 34 35 37 38 40 41 41 42 43 45 47 48 49 53 57 60 63 65 67 67 67 66 60 52 47 44 42 40 37 33 30 28 30
44 49 51 56 58 60 65 65 64 65 70 75 72 70 70 67 67 67 65 66 69 68 67 71 70 64 61 61 62 60 57 56 54 54 54 52 50 49 49 47 44 41 39 37 35 34 33 32 31 29 28 28 28 28 27 27 28 29 30 29 30 32 32 31 33 33 35 36 37 38 39 40 40 42 43 42 43 46 50 53 57 62 64 67 70 73 72 67 61 56 53 50 46 42 38 34 33
42 46 49 55 57 57 65 68 66 67 69 71 69 69 69 66 69 70 67 67 70 70 69 72 74 70 66 64 62 59 56 56 56 57 58 56 53 51 50 47 41 39 39 37 34 32 31 32 31 29 27 26 26 24 24 24 25 25 26 26 27 29 29 28 29 30 31 32 33 34 35 36 38 40 41 41 42 42 42 45 49 53 57 61 66 70 72 71 69 68 65 61 56 53 50 47 44
42 43 45 53 56 54 58 61 64 70 71 67 65 68 68 67 72 72 68 70 73 73 70 70 74 73 68 64 64 61 58 58 59 60 59 54 50 48 46 43 41 40 41 39 36 33 33 33 32 31 28 25 23 22 20 20 21 21 21 21 22 23 24 23 23 25 25 25 27 29 31 32 34 36 38 40 41 43 42 43 44 46 49 53 58 62 66 69 72 74 73 70 67 62 58 55 53
46 46 46 52 54 53 55 56 61 74 76 66 62 69 71 68 71 71 68 70 72 72 70 69 71 72 70 66 64 61 58 58 58 57 54 49 46 44 41 40 41 41 40 38 36 34 35 33 30 28 25 22 21 20 19 18 17 17 17 17 18 19 20 20 20 21 20 21 22 24 25 27 29 31 34 36 37 40 42 43 44 45 45 47 50 52 56 61 68 74 77 76 74 72 68 62 59
51 50 50 53 53 53 57 58 61 69 71 64 58 65 73 70 69 70 68 67 68 69 69 68 68 70 70 67 65 61 57 58 57 55 52 48 46 43 40 40 42 41 38 36 35 33 34 33 29 26 23 20 18 18 18 17 17 18 18 18 19 20 20 19 18 18 18 19 19 20 21 23 24 25 27 28 30 31 34 37 40 41 42 43 45 47 48 50 56 65 75 80 80 78 76 72 69
52 51 51 53 54 57 59 60 62 64 64 64 59 59 70 76 72 70 69 67 68 69 70 69 68 68 66 65 64 59 57 58 58 56 53 49 47 44 42 42 42 38 36 35 35 33 32 32 31 29 27 24 21 19 18 18 18 18 19 21 22 23 23 21 20 19 17 17 17 18 19 20 22 22 22 22 22 23 25 27 29 32 34 36 38 41 44 46 49 54 62 72 80 83 81 79 76
49 49 51 53 56 58 58 59 63 64 63 67 63 58 70 79 73 69 68 67 68 70 71 70 69 66 63 63 61 57 57 57 56 55 53 49 48 45 44 43 40 37 34 33 34 33 32 31 30 29 28 28 27 25 24 23 22 21 20 22 23 25 26 25 24 24 22 19 18 18 20 21 20 20 20 19 19 19 19 21 22 23 25 27 29 32 36 40 45 49 54 60 69 78 83 83 81
46 47 50 54 58 59 60 63 65 66 67 66 60 58 71 79 72 69 68 66 66 68 69 68 65 63 64 64 60 56 56 55 53 53 52 49 48 45 43 41 37 35 33 32 32 32 30 29 28 28 28 29 29 28 27 27 26 25 23 22 24 25 25 26 26 27 27 24 22 21 23 25 24 22 21 19 18 17 17 17 17 18 21 22 24 26 28 31 36 41 47 52 58 65 73 78 82
45 49 52 54 57 60 63 67 64 62 65 65 59 59 70 77 74 70 67 64 63 65 67 64 61 62 64 62 59 57 55 54 53 52 49 48 46 43 41 36 31 33 33 31 29 30 30 28 28 28 27 28 29 27 27 28 27 27 25 23 24 25 24 25 26 27 28 27 25 23 25 28 28 26 25 22 21 20 19 18 16 17 19 21 22 24 25 27 30 33 37 42 47 52 58 66 75
50 54 57 58 62 66 67 68 64 63 66 65 64 65 68 74 74 69 65 64 64 65 64 61 60 62 61 58 56 55 54 53 52 49 47 45 43 42 40 34 28 27 30 30 29 28 28 28 29 28 26 26 27 27 26 27 27 27 25 22 23 25 24 25 26 28 28 26 26 25 24 27 28 27 28 25 24 23 22 21 20 19 20 21 22 22 25 25 26 28 30 32 36 41 46 52 61
56 59 61 63 66 69 70 68 64 66 67 61 62 66 67 71 71 65 64 65 65 63 61 57 57 59 58 55 55 54 53 52 49 46 45 42 41 40 39 37 31 26 26 27 27 27 26 26 27 28 28 26 27 28 27 27 26 26 25 23 22 24 25 26 27 27 28 26 25 25 24 26 27 26 24 24 25 25 24 23 21 22 22 22 22 21 23 25 25 26 27 28 30 32 36 40 46
55 57 60 63 64 69 72 68 62 62 62 59 60 64 66 70 69 65 64 64 63 60 56 54 54 55 54 53 52 52 51 49 45 44 42 40 39 38 37 37 36 32 27 26 26 27 26 25 26 28 29 28 27 28 28 28 27 26 25 23 22 22 23 27 27 27 27 24 23 24 24 25 26 24 24 24 25 25 25 24 22 23 23 22 22 21 21 23 24 25 26 27 27 29 31 33 35
50 51 54 57 61 67 69 68 65 62 60 59 61 64 66 70 66 62 62 61 60 59 55 54 53 54 53 51 50 49 48 46 44 42 40 38 38 36 35 35 36 34 28 26 28 29 28 27 26 27 28 27 26 26 26 26 25 24 24 24 24 23 24 27 27 27 27 24 22 23 24 25 25 24 24 25 24 24 25 24 24 24 23 22 23 21 21 22 23 23 25 26 26 27 29 31 32
45 46 47 49 52 55 58 63 65 65 63 61 63 66 65 66 66 65 64 61 59 59 56 53 50 50 51 49 48 48 46 45 44 41 39 38 36 33 32 33 34 29 26 29 32 32 32 30 27 28 27 26 26 27 26 26 25 24 24 26 25 24 26 28 28 27 27 25 24 24 23 23 24 24 24 24 24 23 24 24 24 24 23 23 23 23 22 21 21 21 21 22 24 25 27 29 31
39 39 40 41 41 44 51 59 62 66 69 65 68 73 70 70 72 70 68 64 59 57 54 50 47 47 48 46 46 46 45 44 42 40 38 36 35 33 32 32 31 27 30 36 38 37 36 33 32 33 32 30 30 32 32 32 29 26 25 27 27 26 27 29 29 28 27 26 25 24 22 22 23 23 24 24 23 23 23 23 23 22 22 23 22 23 23 22 21 21 21 21 21 23 24 27 30
35 36 37 39 39 39 50 58 58 64 71 70 74 78 76 78 78 72 69 65 60 56 52 49 48 47 45 46 48 47 45 43 41 39 37 36 34 33 32 31 30 31 37 40 38 37 37 36 37 39 36 34 34 34 35 34 32 29 28 28 27 26 27 28 30 30 29 29 27 25 23 21 21 21 22 23 22 22 22 22 23 23 23 23 23 23 24 23 22 22 22 23 22 21 22 23 26
32 36 39 45 45 41 47 53 52 61 71 74 78 74 71 75 74 71 70 65 61 58 54 52 51 47 45 48 51 49 46 44 41 37 36 36 33 32 32 31 30 33 37 36 35 36 38 38 40 41 39 36 34 33 34 34 33 32 31 30 28 28 29 30 32 31 31 31 29 28 25 21 21 21 21 22 22 22 22 22 23 24 24 24 24 24 24 23 23 24 24 24 24 23 21 20 22
32 36 41 47 48 43 44 47 48 59 69 74 75 68 66 70 69 67 67 63 61 59 55 53 51 47 47 50 49 46 43 42 39 37 37 35 32 30 31 31 29 31 33 33 35 37 39 40 41 41 40 37 35 35 34 34 35 35 34 33 31 31 31 32 33 33 32 31 30 29 26 22 21 22 22 23 23 23 24 24 24 24 24 25 25 25 25 24 24 26 28 28 27 25 22 20 20
37 41 45 45 45 43 44 42 44 56 66 69 70 67 66 68 65 62 62 59 59 57 54 53 50 49 50 49 47 44 41 40 38 38 37 35 33 31 31 32 33 34 34 35 37 39 40 42 41 41 40 38 36 35 35 36 37 38 37 35 34 33 32 32 33 32 32 31 31 30 29 26 25 25 25 25 26 26 26 27 26 25 25 26 26 27 27 26 27 29 30 29 27 25 23 23 22
33 40 46 45 43 46 49 45 45 54 60 62 64 64 62 62 60 58 57 58 59 56 52 52 50 49 49 46 44 42 40 41 40 38 37 35 34 33 32 35 36 37 37 38 39 39 40 41 41 40 40 38 35 35 36 38 39 40 38 36 34 32 31 30 30 30 30 31 31 31 31 29 28 28 28 27 27 28 28 28 28 27 27 27 28 29 29 28 28 28 27 26 26 26 25 25 24